Home > Time Zones > World Clock > Weather > Peru > Lima > Past weeks

Flag for Peru Weather past 2 weeks in Lima, Lima, Peru

Now
59 °F

Overcast.


Feels Like: 60 °F
Forecast: 61 / 72 °F
Wind: 3 mph from Southwest

Location: Lima-Callao / Aerop. Internacional Jorgechavez

Current Time: Jul 30, 2014 at 6:42:45 AM

Latest Report: Jul 30, 2014 at 6:00 AM


Visibility: N/A

Pressure: 29.98 "Hg

Humidity: 88%

Dew point: 55 °F

Location of LimaLocation

Historic Weather in Lima — Graph

°F

Lima temperature yesterday

Maximum temperature yesterday: 64 °F (at 11:00 AM)
Minimum temperature yesterday: 59 °F (at 1:00 AM)
Average temperature yesterday: 60 °F

Past Weeks' High & Low Weather Summary

 TemperatureHumidityPressure
High68 °F (Jul 21, 2:00 PM)100% (Jul 28, 6:00 AM)30.07 "Hg (Jul 28, 6:00 AM)
Low57 °F (Jul 28, 6:00 AM)68% (Jul 15, 7:00 PM)29.86 "Hg (Jul 21, 5:00 PM)
Average62 °F86%29.97 "Hg
* Reported Jul 15 5:00 AM — Jul 30 5:00 AM, Lima, Weather by CustomWeather, © 2014

Note: Actual official high and low records may vary slightly from our data, if they occured in-between our weather recording intervals... More about our weather records

Advertising

Lima weather history for previous 24 hours

 ConditionsComfort  
Time TempWeatherWind HumidityBarometerVisibility
5:00 AM
Jul 30
59 °FOvercast.5 mph88%29.98 "HgN/A
4:00 AM59 °FOvercast.2 mph94%29.98 "HgN/A
3:00 AM59 °FOvercast.2 mph88%29.98 "HgN/A
2:00 AM59 °FOvercast.6 mph88%30.01 "HgN/A
1:00 AM59 °FDrizzle. Overcast.6 mph94%30.01 "Hg5 mi
12:00 AM59 °FDrizzle. Overcast.7 mph94%30.01 "Hg4 mi
11:00 PM
Jul 29
59 °FDrizzle. Overcast.3 mph88%30.01 "Hg4 mi
10:00 PM59 °FDrizzle. Low clouds.5 mph88%30.01 "Hg4 mi
9:00 PM59 °FLow clouds.5 mph94%30.01 "Hg6 mi
8:00 PM59 °FLow clouds.5 mph88%30.01 "HgN/A
7:00 PM61 °FOvercast.6 mph83%29.98 "HgN/A
6:00 PM61 °FPartly sunny.7 mph83%29.98 "HgN/A
5:00 PM63 °FOvercast.6 mph77%29.95 "HgN/A
4:00 PM63 °FOvercast.8 mph77%29.95 "HgN/A
3:00 PM63 °FOvercast.7 mph77%29.92 "HgN/A
2:00 PM61 °FOvercast.6 mph83%29.95 "HgN/A
1:00 PM63 °FOvercast.8 mph83%29.98 "HgN/A
12:00 PM63 °FOvercast.7 mph83%29.98 "HgN/A
11:00 AM64 °FOvercast.5 mph78%29.98 "HgN/A
10:00 AM61 °FOvercast.5 mph83%30.01 "Hg4 mi
9:00 AM59 °FOvercast.2 mph88%30.04 "HgN/A
8:00 AM59 °FOvercast.5 mph88%30.01 "HgN/A
7:00 AM59 °FMore clouds than sun.5 mph88%30.01 "HgN/A
6:00 AM59 °FOvercast.6 mph88%29.98 "Hg6 mi
Weather by CustomWeather, © 2014

See weather overviewHow to use our weather pages